Regional Weather Roundup
Issued by NWS Northern Indiana

Home | Current Version | Previous Version | Graphics & Text | Print | Product List | Glossary On
Versions: 1 2 3 4 5 6 7 8 9 10 11 12 13 14 15 16 17 18 19 20 21 22 23 24 25 26 27 28 29 30 31 32 33 34 35 36 37 38 39 40 41 42 43 44 45 46 47 48 49 50
000
ASUS43 KIWX 301510
RWRIWX

KIWX WEATHER ROUNDUP
NATIONAL WEATHER SERVICE NORTHERN INDIANA
1100 AM EDT TUE SEP 30 2014

NOTE: "FAIR" INDICATES FEW OR NO CLOUDS BELOW 12,000 FEET WITH NO
SIGNIFICANT WEATHER AND/OR OBSTRUCTIONS TO VISIBILITY.

* THESE STATIONS ARE NOT UNDER NWS QUALITY CONTROL. THEY ALSO MAY NOT
  REPORT WEATHER SUCH AS PRECIPITATION OR FOG.

INZ001>027-301600-
NORTHERN INDIANA

CITY           SKY/WX    TMP DP  RH WIND       PRES   REMARKS
GARY*          PTSUNNY   57  50  77 N14G25    30.05S
VALPARAISO     CLOUDY    55  49  80 N9        30.03S
MICHIGAN CITY* PTSUNNY   54  45  71 N8G18     30.03S
LAPORTE*       CLOUDY    55  53  91 N13G18    30.03S
KNOX*          CLOUDY    54  47  76 N10       30.01S
SOUTH BEND     CLOUDY    54  45  71 N13       30.02S
ELKHART*       CLOUDY    50  45  81 N9        30.02S
MONTICELLO*    CLOUDY    56  49  79 N6        30.01S
LOGANSPORT*    CLOUDY    54  46  76 N8        30.01S
ROCHESTER*     CLOUDY    55  46  71 N9        30.02S
WARSAW*        CLOUDY    50  45  81 NW5       30.02R
ANGOLA*        CLOUDY    48  46  93 N8        30.00S
FORT WAYNE     CLOUDY    53  48  83 NW7       30.00S
HUNTINGTON*    CLOUDY    51  50  95 N8        30.00S FOG
PERU/GRISSOM   CLOUDY    54  53  95 N7        30.00S
MARION*        CLOUDY    54  49  82 N8        30.00S

$$
INZ028>050-301600-
CENTRAL INDIANA

CITY           SKY/WX    TMP DP  RH WIND       PRES   REMARKS
LAFAYETTE      CLOUDY    56  49  77 N8        30.01S
KOKOMO*        CLOUDY    55  46  71 N9        30.01R
MUNCIE*        CLOUDY    57  53  86 N9        29.98S
INDIANAPOLIS   PTSUNNY   60  54  80 N10       29.98S

$$
MIZ043>046-050>051-056>058-064>065-071>073-077>080-301600-
SOUTHWEST LOWER MICHIGAN

CITY           SKY/WX    TMP DP  RH WIND       PRES   REMARKS
BATTLE CREEK   CLOUDY    52  47  83 N9        30.01S
COLDWATER*     CLOUDY    52  49  89 N6        30.00S
HILLSDALE*     CLOUDY    52  52  97 N7        29.99R
GRAND RAPIDS   CLOUDY    52  47  83 N9        30.02R
KALAMAZOO      CLOUDY    51  47  86 N9        30.02R
STURGIS*       CLOUDY    48  46  93 N7        30.00S
THREE RIVERS*  CLOUDY    51  47  87 N6        30.02S

$$
OHZ001>008-015>018-024>025-301600-
NORTHWEST OHIO

CITY           SKY/WX    TMP DP  RH WIND       PRES   REMARKS
WAUSEON*       CLOUDY    54  50  87 VRB5      29.98S
DEFIANCE       CLOUDY    54  46  74 N10       29.99S
FINDLAY        CLOUDY    55  50  83 N7        29.95S
TOLEDO EXPRESS CLOUDY    54  49  83 N8        29.97S
TOLEDO METCALF CLOUDY    56  49  77 NW8       29.97S
LIMA           CLOUDY    55  53  93 N10       29.96S FOG

$$
AND FOR LAKE MICHIGAN COASTAL AND OPEN LAKE BUOY OBSERVATIONS

STATION/POSITION TEMP    WIND        PRES    VSBY  WAVE
                 AIR SEA DIR/SP/G                  HT/PER
                 (F)     (DEG/KT/KT) (MB)    (MI)  (FT/S)
CALUMET HARBOR    54     360/ 10/ 13 1016.1S
MICHIGAN CITY     53     350/ 18/ 22   N/A
SAINT JOSEPH      51      10/  4/  7 1016.9F
SOUTH LAKE BUOY   53 61  360/ 16/ 19 1017.0S         6/ 7
4 MI NW BRIDGMAN  54 62   30/ 12/ 17   N/A           6/ 2
MICHIGAN CITY     55 64   10/ 14/ 19   N/A           6/ 2
SAINT JOSEPH CG                      1016.1      6   4

$$
&&


USA.gov is the U.S. government's official web portal to all federal, state and local government web resources and services.